Terminal Aerodrome Forecast
Issued by NWS

Home | Current Version | Previous Version | Graphics & Text | Print | Product List | Glossary On
Versions: 1 2 3 4 5 6 7 8 9 10 11 12 13
000
FTUS45 KGGW 250159 AAB
TAFOLF
TAF AMD
KOLF 250159Z 2502/2524 07014KT P6SM OVC019
     FM251600 06011KT P6SM BKN040
     FM252100 06010KT P6SM BKN070=

USA.gov is the U.S. government's official web portal to all federal, state and local government web resources and services.